Education
NORAD ID: 27560
Int'l Code: 2002-054B
Perigee: 682.5 km
Apogee: 744.2 km
Inclination: 98.0 °
Period: 98.9 minutes
Semi major axis: 7084 km
Launch date: November 28, 2002
Source: Commonwealth of Independent States (former USSR) (CIS)
Two Line Element Set (TLE):
1 27560U 02054B 13141.45199194 .00000808 00000-0 19144-3 0 5762
2 27560 098.0002 295.1659 0043549 061.2377 299.3168 14.55980214555360
Source:
NASA's NSSDC Master Catalog entry for MOZHAYETS